Regional Weather Roundup
Issued by NWS

Home | Current Version | Previous Version | Text Only | Print | Product List | Glossary Off
Versions: 1 2 3 4 5 6 7 8 9 10 11 12 13 14 15 16 17 18 19 20 21 22 23 24 25 26 27 28 29 30 31 32 33 34 35 36 37 38 39 40 41 42 43 44 45 46 47 48 49 50

000
ASUS43 KDTX 192210
RWRMI
MICHIGAN HOURLY REGIONAL WEATHER ROUNDUP
NATIONAL WEATHER SERVICE DETROIT/PONTIAC MI
500 PM EST SUN NOV 19 2017

NOTE: "FAIR" INDICATES FEW OR NO CLOUDS BELOW 12,000 FEET WITH NO
SIGNIFICANT WEATHER AND/OR OBSTRUCTION TO VISIBILITY.

MIZ047>049-052>055-059>063-066>070-074>076-081>083-192300-
SOUTHEAST LOWER MICHIGAN

CITY           SKY/WX    TMP DP  RH WIND       PRES   REMARKS
ADRIAN         CLOUDY    32  19  58 NW14G24   29.96R WCI  22
ALMA           CLOUDY    30  20  66 W15       29.94R WCI  19
ANN ARBOR      CLOUDY    32  21  64 W16G22    29.92R WCI  21
BAD AXE        CLOUDY    31  19  59 NW16G23   29.85R WCI  20
CARO           CLOUDY    31  26  80 W12G20    29.88R WCI  22
DETROIT CITY   CLOUDY   N/A N/A N/A W12G20    29.91R
DETROIT        CLOUDY    34  21  59 W20G26    29.91R WCI  23
FLINT          CLOUDY    31  21  66 W17       29.91R WCI  19
GROSSE ILE     CLOUDY    34  21  58 W15G23    29.91R WCI  24
HILLSDALE      CLOUDY    32  21  64 W17G24    29.93R WCI  21
HOWELL         CLOUDY    31  19  63 W15G25    29.91R WCI  20

CITY           SKY/WX    TMP DP  RH WIND       PRES   REMARKS
JACKSON        CLOUDY    31  20  63 W13G21    29.93S WCI  21
LAMBERTVILLE   CLOUDY    35  23  61 W13G18    29.95R WCI  27
LANSING        CLOUDY    30  21  69 W9G21     29.94R WCI  22
LAPEER         CLOUDY    32  24  71 W12G20    29.88R WCI  23
MASON          CLOUDY    32  22  67 W14G25    29.94R WCI  22
MONROE         CLOUDY    34  24  65 W17G23    29.93R WCI  24
MT. CLEMENS    MOCLDY    34  25  69 W12G20    29.86R WCI  25
PONTIAC        CLOUDY    31  22  69 W22G31    29.88R WCI  18
PORT HOPE        N/A     32  17  54 W17G31    29.82R WCI  21
PORT HURON     CLOUDY    32  19  59 W6        29.87R WCI  26
TRI CITIES     CLOUDY    31  21  66 W15       29.90R WCI  20
MIDLAND        MOCLDY    31  19  60 W13G24    29.90R WCI  21
TROY           CLOUDY    35  27  74 W6G16     29.91R WCI  30
SAGINAW HB     MOCLDY    32  21  64 W18G24    29.89R WCI  20
$$
MIZ043>046-050>051-056>058-064>065-071>073-077>080-192300-
SOUTHWEST LOWER MICHIGAN

CITY           SKY/WX    TMP DP  RH WIND       PRES   REMARKS
BATTLE CREEK   CLOUDY    31  20  63 W13       29.97R WCI  21
BENTON HARBOR  PTCLDY    34  19  54 W14       30.01R WCI  25
BIG RAPIDS     CLOUDY    27  17  66 NW13      29.92S WCI  16
COLDWATER      CLOUDY    31  20  63 W13G18    29.97R WCI  22
FREMONT        CLOUDY    29  20  68 W7        29.95S WCI  22
HOLLAND        MOCLDY    32  20  61 W8        29.99S WCI  25
GRAND RAPIDS   CLOUDY    30  21  69 W14       29.96S WCI  19
IONIA          CLOUDY    31  20  65 W16G24    29.94R WCI  19
KALAMAZOO      CLOUDY    31  19  61 W8        29.98R WCI  23
LUDINGTON      MOCLDY    29  16  59 W5        29.94F WCI  24
MARSHALL       CLOUDY    31  21  67 W15G21    29.95R WCI  20
MOUNT PLEASANT CLOUDY    30  17  57 W10G20    29.92R WCI  21
MUSKEGON       MOCLDY    32  19  58 W14       29.98R WCI  22
SOUTH HAVEN    MOCLDY    33  20  59 W12G20    30.00R WCI  25
$$
MIZ016>042-192300-
NORTHERN LOWER MICHIGAN

CITY           SKY/WX    TMP DP  RH WIND       PRES   REMARKS
ALPENA         CLOUDY    29  20  69 NW10      29.83R WCI  20
BEAVER ISLAND  CLOUDY    29  17  59 W13G21    29.86S WCI  19
BELLAIRE       FLURRIES  29  21  71 W5        29.89S WCI  24
CADILLAC       CLOUDY    25  18  74 W13G20    29.87S WCI  13
CHARLEVOIX     CLOUDY    29  19  65 W15G21    29.89S WCI  18
FRANKFORT      CLOUDY    30  18  62 W9        29.92F WCI  21
GAYLORD        FLURRIES  24  17  74 W12       29.82R WCI  13
GRAYLING       FLURRIES  26  19  75 W10       29.86R WCI  15
HARBOR SPRINGS CLOUDY    29  18  63 W6        29.84S WCI  23
MANISTEE       CLOUDY    28  19  69 W9        29.93F WCI  19
OSCODA         CLOUDY    30  17  59 W15G22    29.85R WCI  19
PELLSTON       CLOUDY    28  18  66 W9        29.84S WCI  19
ROGERS CITY    CLOUDY    29  16  57 W10G18    29.83R WCI  20
TRAVERSE CITY  CLOUDY    28  18  66 W13       29.90S WCI  17
$$
MIZ007>008-015-192300-
EASTERN UPPER MICHIGAN

CITY           SKY/WX    TMP DP  RH WIND       PRES   REMARKS
KINROSS        FLURRIES  25  18  74 W16       29.80R WCI  12
MACKINAC ISLAN FLURRIES  29  19  68 NW14G20   29.82R WCI  18
NEWBERRY       LGT SNOW  23  22  95 W14G21    29.82R WCI  10
S. S. MARIE    FLURRIES  27  19  72 W14G23    29.78R WCI  16
MUNISING         N/A     26  16  65 W6G16     29.86R WCI  19
$$
MIZ004>006-011>014-085-192300-
CENTRAL UPPER MICHIGAN

CITY           SKY/WX    TMP DP  RH WIND       PRES   REMARKS
MANISTIQUE     PTCLDY    24   6  46 W5        29.86S WCI  19
ESCANABA       PTCLDY    25  13  60 W9        29.90S WCI  15
MENOMINEE      CLEAR     29  11  47 W7        29.93R WCI  22
SAWYER-GWINN   CLOUDY    21  14  73 W14G20    29.85S WCI   8
$$
MIZ001>003-009>011-084-192300-
WESTERN UPPER MICHIGAN

CITY           SKY/WX    TMP DP  RH WIND       PRES   REMARKS
IRON MOUNTAIN  MOCLDY    25   9  50 W9        29.86S WCI  15
HOUGHTON       CLOUDY    25  15  66 W22       29.81S WCI  10
COPPER HARBOR    N/A     27  16  63 N13G22    29.82S WCI  16
IRONWOOD       LGT SNOW N/A N/A N/A SW8       29.87S
$$

ABBREVIATIONS USED IN REMARKS
   TC - TEMPERATURE IN CELSIUS
  WCI - WIND CHILL INDEX
   HX - HEAT INDEX
  VSB - VISIBILITY




USA.gov is the U.S. government's official web portal to all federal, state and local government web resources and services.